{"data":{"norad_id":55623,"epoch":"2026-09-20T21:36:30.285792Z","epoch_age_seconds":68492,"freshness":"FRESH","line1":"1 55623U 23020BG  26263.90035053 -.00000165  00000+0  35323-5 0  9995","line2":"2 55623  43.0039 331.8321 0001198 279.3708  80.7008 15.27575275 22315","mean_motion":15.27575275,"eccentricity":0.0001198,"inclination_deg":43.0039,"raan_deg":331.8321,"arg_perigee_deg":279.3708,"mean_anomaly_deg":80.7008,"bstar":3.5323e-6,"rev_number":2231,"period_min":94.267040293644,"perigee_km":482.24127263665,"apogee_km":483.88521621521,"semimajor_km":6861.2002444259,"source":"CELESTRAK","updated_at":"2026-09-21T09:00:33.278243Z"}}